Regional Weather Roundup
Issued by NWS

Home | Current Version | Previous Version | Graphics & Text | Print | Product List | Glossary On
Versions: 1 2 3 4 5 6 7 8 9 10 11 12 13 14 15 16 17 18 19 20 21 22 23 24 25 26 27 28 29 30 31 32 33 34 35 36 37 38 39 40 41 42 43 44 45 46 47 48 49 50
000
ASUS45 KABQ 241401
RWRNM
NEW MEXICO REGIONAL WEATHER ROUNDUP
NATIONAL WEATHER SERVICE ALBUQUERQUE NM
800 AM MDT TUE MAY 24 2016

NOTE: "FAIR" MEANS FEW OR NO CLOUDS BELOW 12,000 FEET AGL WITH NO
       SIGNIFICANT WEATHER OR OBSTRUCTIONS TO VISION.

      THIS PRODUCT IS RELEASED AS TWO VERSIONS.  ONE VERSION NEAR
      THE TOP OF THE HOUR CONTAINING PRELIMINARY DATA FROM ALBUQUERQUE
      AND OTHER STATIONS.  A FINAL VERSION WITH ADDITIONAL DATA IS
      ISSUED ABOUT 10 MINUTES AFTER THE HOUR.

NMZ501-503-504-510>518-241500-
NORTHWEST PLATEAU/NORTHCENTRAL MOUNTAINS

CITY           SKY/WX    TMP DP  RH WIND       PRES   REMARKS
FARMINGTON     FAIR      51  23  33 E8        29.99R
SANTA FE       FAIR      60  22  23 N7        30.05R
TAOS           FAIR      54  25  32 CALM      30.11R
ANGEL FIRE     FAIR      40  29  64 CALM      30.15R

$$
NMZ402-403-502-505>509-241500-
WESTCENTRAL MOUNTAINS/SOUTHWEST MOUNTAINS

CITY           SKY/WX    TMP DP  RH WIND       PRES   REMARKS
GALLUP         FAIR      54  26  34 MISG      30.05R
GRANTS         FAIR      53  24  32 SE6       30.09R
SILVER CITY      N/A     63  25  23 CALM      30.07R

$$
NMZ407-409-411-412-241500-
SOUTHERN DESERTS

CITY           SKY/WX    TMP DP  RH WIND       PRES   REMARKS
LORDSBURG      FAIR      63  28  27 E3        30.00R
DEMING         FAIR      60  24  25 CALM      30.02R
HOLLOMAN AFB   FAIR      71  23  16 SE6       29.99R
ALAMOGORDO     FAIR      72  27  18 SE8       30.01R
T OR C         FAIR      66  24  20 S7        30.00R

$$
NMZ519>523-241500-
CENTRAL VALLEYS/CENTRAL HIGHLANDS

CITY           SKY/WX    TMP DP  RH WIND       PRES   REMARKS
ALBUQUERQUE    FAIR      62  23  22 CALM      30.02R
DOUBLE EAGLE   SUNNY     61  27  27 VRB6      30.05R
CLINES CORNERS FAIR      60  22  23 W10       30.07R
BELEN          FAIR      62  23  21 CALM      30.02R
SOCORRO        NOT AVBL

$$
NMZ524>526-539-540-241500-
SOUTHCENTRAL MOUNTAINS

CITY           SKY/WX    TMP DP  RH WIND       PRES   REMARKS
RUIDOSO        NOT AVBL

$$
NMZ527>531-241500-
NORTHEAST HIGHLANDS/NORTHEAST PLAINS

CITY           SKY/WX    TMP DP  RH WIND       PRES   REMARKS
LAS VEGAS      FAIR      60  26  27 S6        30.05R
RATON          FAIR      56  29  35 NE7       29.99R
CLAYTON        FAIR      69  36  29 W8        29.91R

$$
NMZ532>537-241500-
EASTCENTRAL PLAINS

CITY           SKY/WX    TMP DP  RH WIND       PRES   REMARKS
TUCUMCARI      FAIR      67  30  25 W7        29.90R
CANNON AFB     FAIR      67  58  72 SW12      29.94R
CLOVIS AIRPORT FAIR      64  57  77 SW15      29.94R

$$
NMZ028-029-538-241500-
SOUTHEAST PLAINS

CITY           SKY/WX    TMP DP  RH WIND       PRES   REMARKS
ROSWELL        FAIR      67  29  24 SE5       29.93R
ARTESIA        FAIR      73  25  16 SW8       29.93S
CARLSBAD       FAIR      73  53  49 S6        29.92R
HOBBS          SUNNY     70  70 100 S12       29.94R


$$




USA.gov is the U.S. government's official web portal to all federal, state and local government web resources and services.